Time,TemperatureF,DewpointF,PressureIn,WindDirection,WindDirectionDegrees,WindSpeedMPH,WindSpeedGustMPH,Humidity,HourlyPrecipIn,Conditions,Clouds,dailyrainin,SoftwareType,DateUTC
2013-01-19 00:00:00,61.5,56.0,30.17,SSE,158,1.0,1.0,82,0.00,,,0.00,Wunderground v.1.15,2013-01-19 05:00:00,
2013-01-19 00:05:00,61.4,55.9,30.17,SSE,158,2.0,2.0,82,0.00,,,0.00,Wunderground v.1.15,2013-01-19 05:05:00,
2013-01-19 00:10:00,61.3,56.1,30.16,SSE,158,2.0,2.0,83,0.00,,,0.00,Wunderground v.1.15,2013-01-19 05:10:00,
2013-01-19 00:15:00,61.2,56.0,30.16,SSE,158,2.0,3.0,83,0.00,,,0.00,Wunderground v.1.15,2013-01-19 05:15:00,
2013-01-19 00:25:00,61.2,56.3,30.16,SSE,158,4.0,5.0,84,0.00,,,0.00,Wunderground v.1.15,2013-01-19 05:25:00,
2013-01-19 00:30:00,61.3,56.8,30.16,SSE,158,4.0,5.0,85,0.00,,,0.00,Wunderground v.1.15,2013-01-19 05:30:00,
2013-01-19 00:40:00,61.5,57.3,30.16,SSE,158,5.0,5.0,86,0.00,,,0.00,Wunderground v.1.15,2013-01-19 05:40:00,
2013-01-19 00:45:00,61.6,57.4,30.15,SSE,158,4.0,5.0,86,0.00,,,0.00,Wunderground v.1.15,2013-01-19 05:45:00,
2013-01-19 00:55:00,61.8,57.6,30.15,SSE,158,2.0,3.0,86,0.00,,,0.00,Wunderground v.1.15,2013-01-19 05:55:00,
2013-01-19 01:00:00,61.8,57.6,30.15,SSE,158,2.0,4.0,86,0.00,,,0.00,Wunderground v.1.15,2013-01-19 06:00:00,
2013-01-19 01:10:00,62.0,58.1,30.15,SSE,158,4.0,4.0,87,0.00,,,0.00,Wunderground v.1.15,2013-01-19 06:10:00,
2013-01-19 01:15:00,62.1,58.2,30.15,SSE,158,4.0,5.0,87,0.00,,,0.00,Wunderground v.1.15,2013-01-19 06:15:00,
2013-01-19 01:20:00,62.3,58.4,30.15,SSE,158,5.0,5.0,87,0.00,,,0.00,Wunderground v.1.15,2013-01-19 06:20:00,
2013-01-19 01:30:00,62.6,58.7,30.14,SSE,158,3.0,5.0,87,0.00,,,0.00,Wunderground v.1.15,2013-01-19 06:30:00,
2013-01-19 01:35:00,62.7,58.8,30.14,SSE,158,4.0,5.0,87,0.00,,,0.00,Wunderground v.1.15,2013-01-19 06:35:00,
2013-01-19 01:45:00,62.9,59.0,30.14,SSE,158,4.0,5.0,87,0.00,,,0.00,Wunderground v.1.15,2013-01-19 06:45:00,
2013-01-19 01:50:00,62.9,58.6,30.14,SSE,158,4.0,4.0,86,0.00,,,0.00,Wunderground v.1.15,2013-01-19 06:50:00,
2013-01-19 01:55:00,63.0,58.7,30.14,SSE,158,3.0,4.0,86,0.00,,,0.00,Wunderground v.1.15,2013-01-19 06:55:00,
2013-01-19 02:05:00,63.2,58.9,30.13,SSE,158,4.0,5.0,86,0.00,,,0.00,Wunderground v.1.15,2013-01-19 07:05:00,
2013-01-19 02:15:00,63.5,59.2,30.13,SSE,158,4.0,5.0,86,0.00,,,0.00,Wunderground v.1.15,2013-01-19 07:15:00,
2013-01-19 02:20:00,63.5,59.2,30.13,SSE,158,4.0,4.0,86,0.00,,,0.00,Wunderground v.1.15,2013-01-19 07:20:00,
2013-01-19 02:30:00,63.4,58.8,30.13,SSE,158,2.0,2.0,85,0.00,,,0.00,Wunderground v.1.15,2013-01-19 07:30:00,
2013-01-19 02:40:00,63.6,59.0,30.12,SSE,158,3.0,4.0,85,0.00,,,0.00,Wunderground v.1.15,2013-01-19 07:40:00,
2013-01-19 02:50:00,63.8,59.2,30.12,SSE,158,3.0,4.0,85,0.00,,,0.00,Wunderground v.1.15,2013-01-19 07:50:00,
2013-01-19 02:55:00,64.0,59.4,30.12,SSE,158,3.0,4.0,85,0.00,,,0.00,Wunderground v.1.15,2013-01-19 07:55:00,
2013-01-19 03:05:00,64.1,59.2,30.12,SSE,158,4.0,6.0,84,0.00,,,0.00,Wunderground v.1.15,2013-01-19 08:05:00,
2013-01-19 03:10:00,64.2,58.9,30.11,SSE,158,6.0,6.0,83,0.00,,,0.00,Wunderground v.1.15,2013-01-19 08:10:00,
2013-01-19 03:20:00,64.3,59.0,30.11,SSE,158,7.0,7.0,83,0.00,,,0.00,Wunderground v.1.15,2013-01-19 08:20:00,
2013-01-19 03:30:00,64.4,58.8,30.12,SSE,158,5.0,5.0,82,0.00,,,0.00,Wunderground v.1.15,2013-01-19 08:30:00,
2013-01-19 03:35:00,64.5,58.5,30.11,SSE,158,4.0,5.0,81,0.00,,,0.00,Wunderground v.1.15,2013-01-19 08:35:00,
2013-01-19 03:40:00,64.5,58.5,30.12,SSE,158,4.0,4.0,81,0.00,,,0.00,Wunderground v.1.15,2013-01-19 08:40:00,
2013-01-19 03:50:00,64.7,58.7,30.12,SSE,158,3.0,3.0,81,0.00,,,0.00,Wunderground v.1.15,2013-01-19 08:50:00,
2013-01-19 03:55:00,64.7,58.7,30.12,SSE,158,3.0,3.0,81,0.00,,,0.00,Wunderground v.1.15,2013-01-19 08:55:00,
2013-01-19 04:00:00,64.8,58.8,30.12,SSE,158,3.0,4.0,81,0.00,,,0.00,Wunderground v.1.15,2013-01-19 09:00:00,
2013-01-19 04:10:00,64.9,58.9,30.12,SSE,158,3.0,3.0,81,0.00,,,0.00,Wunderground v.1.15,2013-01-19 09:10:00,
2013-01-19 04:20:00,64.9,58.9,30.12,SSE,158,3.0,3.0,81,0.00,,,0.00,Wunderground v.1.15,2013-01-19 09:20:00,
2013-01-19 04:25:00,64.9,58.9,30.12,SSE,158,4.0,4.0,81,0.00,,,0.00,Wunderground v.1.15,2013-01-19 09:25:00,
2013-01-19 04:35:00,65.0,59.0,30.12,SSE,158,3.0,4.0,81,0.00,,,0.00,Wunderground v.1.15,2013-01-19 09:35:00,
2013-01-19 04:40:00,65.0,58.7,30.12,SSE,158,4.0,4.0,80,0.00,,,0.00,Wunderground v.1.15,2013-01-19 09:40:00,
2013-01-19 04:45:00,65.0,58.7,30.12,SSE,158,5.0,5.0,80,0.00,,,0.00,Wunderground v.1.15,2013-01-19 09:45:00,
2013-01-19 04:55:00,65.0,58.3,30.12,SSE,158,7.0,7.0,79,0.00,,,0.00,Wunderground v.1.15,2013-01-19 09:55:00,
2013-01-19 05:00:00,65.0,58.3,30.12,SSE,158,7.0,8.0,79,0.00,,,0.00,Wunderground v.1.15,2013-01-19 10:00:00,
2013-01-19 05:10:00,65.2,58.2,30.13,SSE,158,7.0,7.0,78,0.00,,,0.00,Wunderground v.1.15,2013-01-19 10:10:00,
2013-01-19 05:20:00,65.4,58.4,30.13,SSE,158,7.0,8.0,78,0.00,,,0.00,Wunderground v.1.15,2013-01-19 10:20:00,
2013-01-19 05:25:00,65.6,58.9,30.13,SSE,158,7.0,8.0,79,0.00,,,0.00,Wunderground v.1.15,2013-01-19 10:25:00,
2013-01-19 05:30:00,65.6,58.9,30.13,SSE,158,8.0,8.0,79,0.00,,,0.00,Wunderground v.1.15,2013-01-19 10:30:00,
2013-01-19 05:40:00,65.7,59.0,30.13,SSE,158,9.0,9.0,79,0.00,,,0.00,Wunderground v.1.15,2013-01-19 10:40:00,
2013-01-19 05:45:00,65.8,59.5,30.13,SSE,158,10.0,10.0,80,0.00,,,0.00,Wunderground v.1.15,2013-01-19 10:45:00,
2013-01-19 05:55:00,65.8,59.5,30.13,SSE,158,8.0,9.0,80,0.00,,,0.00,Wunderground v.1.15,2013-01-19 10:55:00,
2013-01-19 06:00:00,65.8,59.5,30.13,SSE,158,7.0,7.0,80,0.00,,,0.00,Wunderground v.1.15,2013-01-19 11:00:00,
2013-01-19 06:10:00,65.9,59.9,30.14,SSE,158,5.0,5.0,81,0.00,,,0.00,Wunderground v.1.15,2013-01-19 11:10:00,
2013-01-19 07:50:00,66.4,61.4,30.16,SSE,158,5.0,5.0,84,0.00,,,0.00,Wunderground v.1.15,2013-01-19 12:50:00,
2013-01-19 07:55:00,66.4,61.4,30.16,SSE,158,5.0,5.0,84,0.00,,,0.00,Wunderground v.1.15,2013-01-19 12:55:00,
2013-01-19 08:00:00,66.5,61.5,30.16,SSE,158,5.0,5.0,84,0.00,,,0.00,Wunderground v.1.15,2013-01-19 13:00:00,
2013-01-19 08:05:00,66.6,61.6,30.16,SSE,158,5.0,5.0,84,0.00,,,0.00,Wunderground v.1.15,2013-01-19 13:05:00,
2013-01-19 08:15:00,66.7,61.7,30.16,SSE,158,5.0,6.0,84,0.00,,,0.00,Wunderground v.1.15,2013-01-19 13:15:00,
2013-01-19 08:20:00,66.8,62.1,30.17,SSE,158,5.0,7.0,85,0.00,,,0.00,Wunderground v.1.15,2013-01-19 13:20:00,
2013-01-19 08:25:00,67.0,62.3,30.17,SSE,158,5.0,7.0,85,0.00,,,0.00,Wunderground v.1.15,2013-01-19 13:25:00,
2013-01-19 08:30:00,67.2,62.5,30.17,SSE,158,5.0,6.0,85,0.00,,,0.00,Wunderground v.1.15,2013-01-19 13:30:00,
2013-01-19 08:40:00,67.4,62.4,30.17,SSE,158,5.0,5.0,84,0.00,,,0.00,Wunderground v.1.15,2013-01-19 13:40:00,
2013-01-19 08:45:00,67.5,62.5,30.17,SSE,158,5.0,5.0,84,0.00,,,0.00,Wunderground v.1.15,2013-01-19 13:45:00,
2013-01-19 08:50:00,67.7,62.7,30.17,SSE,158,5.0,6.0,84,0.00,,,0.00,Wunderground v.1.15,2013-01-19 13:50:00,
2013-01-19 09:00:00,68.1,62.7,30.17,SSE,158,5.0,6.0,83,0.00,,,0.00,Wunderground v.1.15,2013-01-19 14:00:00,
2013-01-19 09:05:00,68.6,62.9,30.17,SSE,158,6.0,6.0,82,0.00,,,0.00,Wunderground v.1.15,2013-01-19 14:05:00,
2013-01-19 09:15:00,69.2,62.8,30.18,SSE,158,6.0,6.0,80,0.00,,,0.00,Wunderground v.1.15,2013-01-19 14:15:00,
2013-01-19 09:20:00,69.3,62.9,30.18,SSE,158,6.0,6.0,80,0.00,,,0.00,Wunderground v.1.15,2013-01-19 14:20:00,
2013-01-19 09:30:00,69.8,63.0,30.19,SSE,158,7.0,7.0,79,0.00,,,0.00,Wunderground v.1.15,2013-01-19 14:30:00,
2013-01-19 09:35:00,69.9,63.1,30.19,SSE,158,6.0,7.0,79,0.00,,,0.00,Wunderground v.1.15,2013-01-19 14:35:00,
2013-01-19 09:45:00,70.6,63.4,30.19,SSE,158,6.0,6.0,78,0.00,,,0.00,Wunderground v.1.15,2013-01-19 14:45:00,
2013-01-19 09:50:00,70.7,63.9,30.19,SSE,158,6.0,6.0,79,0.00,,,0.00,Wunderground v.1.15,2013-01-19 14:50:00,
2013-01-19 09:55:00,70.7,63.5,30.19,SSE,158,6.0,6.0,78,0.00,,,0.00,Wunderground v.1.15,2013-01-19 14:55:00,
2013-01-19 10:05:00,70.8,63.6,30.19,SSE,158,6.0,8.0,78,0.00,,,0.00,Wunderground v.1.15,2013-01-19 15:05:00,
2013-01-19 10:10:00,71.0,63.8,30.20,SSE,158,7.0,8.0,78,0.00,,,0.00,Wunderground v.1.15,2013-01-19 15:10:00,
2013-01-19 10:20:00,71.0,63.4,30.19,SSE,158,7.0,7.0,77,0.00,,,0.00,Wunderground v.1.15,2013-01-19 15:20:00,
2013-01-19 10:25:00,71.0,63.4,30.19,SSE,158,7.0,7.0,77,0.00,,,0.00,Wunderground v.1.15,2013-01-19 15:25:00,
2013-01-19 10:30:00,71.5,63.2,30.19,SSE,158,6.0,6.0,75,0.00,,,0.00,Wunderground v.1.15,2013-01-19 15:30:00,
2013-01-19 10:40:00,72.6,63.4,30.19,SSE,158,6.0,8.0,73,0.00,,,0.00,Wunderground v.1.15,2013-01-19 15:40:00,
2013-01-19 10:45:00,72.4,63.6,30.19,SSE,158,6.0,8.0,74,0.00,,,0.00,Wunderground v.1.15,2013-01-19 15:45:00,
2013-01-19 10:50:00,72.1,63.4,30.19,SSE,158,6.0,8.0,74,0.00,,,0.00,Wunderground v.1.15,2013-01-19 15:50:00,
2013-01-19 11:00:00,71.7,63.0,30.19,SSE,158,8.0,8.0,74,0.00,,,0.00,Wunderground v.1.15,2013-01-19 16:00:00,
2013-01-19 11:05:00,71.9,62.8,30.19,SSE,158,7.0,8.0,73,0.00,,,0.00,Wunderground v.1.15,2013-01-19 16:05:00,
2013-01-19 11:10:00,72.0,63.3,30.19,SSE,158,6.0,6.0,74,0.00,,,0.00,Wunderground v.1.15,2013-01-19 16:10:00,
2013-01-19 11:20:00,71.6,63.6,30.18,SSE,158,6.0,7.0,76,0.00,,,0.00,Wunderground v.1.15,2013-01-19 16:20:00,
2013-01-19 11:25:00,71.3,63.0,30.18,SSE,158,6.0,7.0,75,0.00,,,0.00,Wunderground v.1.15,2013-01-19 16:25:00,
2013-01-19 11:30:00,71.4,63.4,30.18,SSE,158,7.0,8.0,76,0.00,,,0.00,Wunderground v.1.15,2013-01-19 16:30:00,
2013-01-19 11:40:00,71.4,63.4,30.17,SSE,158,8.0,8.0,76,0.00,,,0.00,Wunderground v.1.15,2013-01-19 16:40:00,
2013-01-19 11:45:00,71.5,63.2,30.17,SSE,158,8.0,8.0,75,0.00,,,0.00,Wunderground v.1.15,2013-01-19 16:45:00,
2013-01-19 11:55:00,72.1,63.7,30.17,SSE,158,8.0,8.0,75,0.00,,,0.00,Wunderground v.1.15,2013-01-19 16:55:00,
2013-01-19 12:00:00,72.1,63.7,30.16,SSE,158,8.0,9.0,75,0.00,,,0.00,Wunderground v.1.15,2013-01-19 17:00:00,
2013-01-19 12:05:00,72.5,64.1,30.16,SSE,158,8.0,9.0,75,0.00,,,0.00,Wunderground v.1.15,2013-01-19 17:05:00,
2013-01-19 12:25:00,73.1,64.3,30.15,SSE,158,8.0,10.0,74,0.00,,,0.00,Wunderground v.1.15,2013-01-19 17:25:00,
2013-01-19 12:30:00,73.3,63.7,30.14,SSE,158,8.0,8.0,72,0.00,,,0.00,Wunderground v.1.15,2013-01-19 17:30:00,
2013-01-19 12:35:00,73.6,64.4,30.14,SSE,158,8.0,9.0,73,0.00,,,0.00,Wunderground v.1.15,2013-01-19 17:35:00,
2013-01-19 12:40:00,73.8,65.0,30.14,SSE,158,7.0,8.0,74,0.00,,,0.00,Wunderground v.1.15,2013-01-19 17:40:00,
2013-01-19 12:50:00,73.7,64.5,30.13,SSE,158,8.0,8.0,73,0.00,,,0.00,Wunderground v.1.15,2013-01-19 17:50:00,
2013-01-19 12:55:00,73.8,65.0,30.13,SSE,158,8.0,9.0,74,0.00,,,0.00,Wunderground v.1.15,2013-01-19 17:55:00,
2013-01-19 13:00:00,72.9,64.1,30.13,SSE,158,9.0,9.0,74,0.00,,,0.00,Wunderground v.1.15,2013-01-19 18:00:00,
2013-01-19 13:05:00,73.1,64.7,30.12,SSE,158,7.0,9.0,75,0.00,,,0.00,Wunderground v.1.15,2013-01-19 18:05:00,
2013-01-19 13:15:00,74.2,65.8,30.11,SSE,158,6.0,10.0,75,0.00,,,0.00,Wunderground v.1.15,2013-01-19 18:15:00,
2013-01-19 13:25:00,73.6,64.8,30.11,SSE,158,8.0,12.0,74,0.00,,,0.00,Wunderground v.1.15,2013-01-19 18:25:00,
2013-01-19 13:35:00,74.3,64.7,30.11,SSE,158,6.0,9.0,72,0.00,,,0.00,Wunderground v.1.15,2013-01-19 18:35:00,
2013-01-19 13:40:00,72.9,64.5,30.10,SSE,158,8.0,8.0,75,0.00,,,0.00,Wunderground v.1.15,2013-01-19 18:40:00,
2013-01-19 13:50:00,73.1,65.5,30.10,SSE,158,8.0,8.0,77,0.00,,,0.00,Wunderground v.1.15,2013-01-19 18:50:00,
2013-01-19 13:55:00,74.0,65.6,30.10,SSE,158,8.0,8.0,75,0.00,,,0.00,Wunderground v.1.15,2013-01-19 18:55:00,
2013-01-19 14:05:00,74.4,65.2,30.09,SSE,158,7.0,7.0,73,0.00,,,0.00,Wunderground v.1.15,2013-01-19 19:05:00,
2013-01-19 14:10:00,74.9,66.1,30.09,SSE,158,7.0,7.0,74,0.00,,,0.00,Wunderground v.1.15,2013-01-19 19:10:00,
2013-01-19 14:20:00,74.6,65.8,30.09,SSE,158,6.0,6.0,74,0.00,,,0.00,Wunderground v.1.15,2013-01-19 19:20:00,
2013-01-19 14:30:00,75.6,66.3,30.09,SSE,158,6.0,6.0,73,0.00,,,0.00,Wunderground v.1.15,2013-01-19 19:30:00,
2013-01-19 14:35:00,76.5,66.0,30.08,SSE,158,7.0,7.0,70,0.00,,,0.00,Wunderground v.1.15,2013-01-19 19:35:00,
2013-01-19 14:45:00,73.8,64.2,30.08,SSE,158,8.0,10.0,72,0.00,,,0.00,Wunderground v.1.15,2013-01-19 19:45:00,
2013-01-19 14:50:00,73.4,64.2,30.08,SSE,158,9.0,9.0,73,0.00,,,0.00,Wunderground v.1.15,2013-01-19 19:50:00,
2013-01-19 15:10:00,74.4,65.6,30.08,SSE,158,9.0,9.0,74,0.00,,,0.00,Wunderground v.1.15,2013-01-19 20:10:00,
2013-01-19 15:20:00,72.8,64.8,30.08,SSE,158,8.0,10.0,76,0.00,,,0.00,Wunderground v.1.15,2013-01-19 20:20:00,
2013-01-19 15:25:00,72.0,64.4,30.08,SSE,158,9.0,10.0,77,0.00,,,0.00,Wunderground v.1.15,2013-01-19 20:25:00,
2013-01-19 15:35:00,71.6,64.7,30.08,SSE,158,9.0,9.0,79,0.00,,,0.00,Wunderground v.1.15,2013-01-19 20:35:00,
2013-01-19 15:45:00,71.3,63.7,30.08,SSE,158,8.0,9.0,77,0.00,,,0.00,Wunderground v.1.15,2013-01-19 20:45:00,
2013-01-19 15:50:00,71.5,64.6,30.08,SSE,158,9.0,9.0,79,0.00,,,0.00,Wunderground v.1.15,2013-01-19 20:50:00,
2013-01-19 16:00:00,71.7,64.5,30.08,SSE,158,9.0,10.0,78,0.00,,,0.00,Wunderground v.1.15,2013-01-19 21:00:00,
2013-01-19 16:05:00,71.9,65.0,30.08,SSE,158,9.0,10.0,79,0.00,,,0.00,Wunderground v.1.15,2013-01-19 21:05:00,
2013-01-19 16:10:00,71.9,64.7,30.08,SSE,158,8.0,11.0,78,0.00,,,0.00,Wunderground v.1.15,2013-01-19 21:10:00,
2013-01-19 16:20:00,71.6,64.4,30.08,SSE,158,8.0,8.0,78,0.00,,,0.00,Wunderground v.1.15,2013-01-19 21:20:00,
2013-01-19 16:25:00,71.5,63.9,30.08,SSE,158,8.0,8.0,77,0.00,,,0.00,Wunderground v.1.15,2013-01-19 21:25:00,
2013-01-19 16:40:00,71.6,64.0,30.08,SSE,158,9.0,9.0,77,0.00,,,0.00,Wunderground v.1.15,2013-01-19 21:40:00,
2013-01-19 16:50:00,71.7,64.1,30.08,SSE,158,9.0,9.0,77,0.00,,,0.00,Wunderground v.1.15,2013-01-19 21:50:00,
2013-01-19 17:00:00,72.5,64.9,30.08,SSE,158,9.0,9.0,77,0.00,,,0.00,Wunderground v.1.15,2013-01-19 22:00:00,
2013-01-19 17:05:00,72.3,64.7,30.08,SSE,158,9.0,9.0,77,0.00,,,0.00,Wunderground v.1.15,2013-01-19 22:05:00,
2013-01-19 17:15:00,72.2,64.6,30.08,SSE,158,9.0,9.0,77,0.00,,,0.00,Wunderground v.1.15,2013-01-19 22:15:00,
2013-01-19 17:25:00,71.9,64.3,30.08,SSE,158,10.0,10.0,77,0.00,,,0.00,Wunderground v.1.15,2013-01-19 22:25:00,
2013-01-19 17:30:00,71.9,64.3,30.08,SSE,158,9.0,9.0,77,0.00,,,0.00,Wunderground v.1.15,2013-01-19 22:30:00,
2013-01-19 17:35:00,71.7,64.1,30.08,SSE,158,8.0,9.0,77,0.00,,,0.00,Wunderground v.1.15,2013-01-19 22:35:00,
2013-01-19 17:45:00,71.6,64.0,30.08,SSE,158,8.0,8.0,77,0.00,,,0.00,Wunderground v.1.15,2013-01-19 22:45:00,
2013-01-19 17:50:00,71.6,64.4,30.08,SSE,158,8.0,8.0,78,0.00,,,0.00,Wunderground v.1.15,2013-01-19 22:50:00,
2013-01-19 18:00:00,71.6,64.7,30.08,SSE,158,7.0,7.0,79,0.00,,,0.00,Wunderground v.1.15,2013-01-19 23:00:00,
2013-01-19 18:10:00,71.6,64.7,30.08,SSE,158,6.0,8.0,79,0.00,,,0.00,Wunderground v.1.15,2013-01-19 23:10:00,
2013-01-19 18:20:00,71.5,64.6,30.09,SSE,158,7.0,7.0,79,0.00,,,0.00,Wunderground v.1.15,2013-01-19 23:20:00,
2013-01-19 18:25:00,71.5,64.6,30.09,SSE,158,6.0,7.0,79,0.00,,,0.00,Wunderground v.1.15,2013-01-19 23:25:00,
2013-01-19 18:30:00,71.4,64.9,30.09,SSE,158,6.0,7.0,80,0.00,,,0.00,Wunderground v.1.15,2013-01-19 23:30:00,
2013-01-19 18:40:00,71.3,64.8,30.09,SSE,158,7.0,7.0,80,0.00,,,0.00,Wunderground v.1.15,2013-01-19 23:40:00,
2013-01-19 18:50:00,71.3,65.2,30.10,SSE,158,6.0,6.0,81,0.00,,,0.00,Wunderground v.1.15,2013-01-19 23:50:00,
2013-01-19 19:00:00,71.2,65.1,30.10,SSE,158,5.0,5.0,81,0.00,,,0.00,Wunderground v.1.15,2013-01-20 00:00:00,
2013-01-19 19:05:00,71.1,65.0,30.10,SSE,158,6.0,6.0,81,0.00,,,0.00,Wunderground v.1.15,2013-01-20 00:05:00,
2013-01-19 19:15:00,71.0,64.9,30.10,SSE,158,5.0,5.0,81,0.00,,,0.00,Wunderground v.1.15,2013-01-20 00:15:00,
2013-01-19 19:20:00,71.0,64.9,30.10,SSE,158,5.0,6.0,81,0.00,,,0.00,Wunderground v.1.15,2013-01-20 00:20:00,
2013-01-19 19:30:00,71.0,64.9,30.10,SSE,158,5.0,5.0,81,0.00,,,0.00,Wunderground v.1.15,2013-01-20 00:30:00,
2013-01-19 19:35:00,71.0,64.9,30.10,SSE,158,4.0,5.0,81,0.00,,,0.00,Wunderground v.1.15,2013-01-20 00:35:00,
2013-01-19 19:50:00,70.9,64.8,30.10,SSE,158,4.0,4.0,81,0.00,,,0.00,Wunderground v.1.15,2013-01-20 00:50:00,
2013-01-19 19:55:00,70.9,64.8,30.11,SSE,158,4.0,5.0,81,0.00,,,0.00,Wunderground v.1.15,2013-01-20 00:55:00,
2013-01-19 20:05:00,70.7,64.6,30.11,SSE,158,5.0,5.0,81,0.00,,,0.00,Wunderground v.1.15,2013-01-20 01:05:00,
2013-01-19 20:10:00,70.8,64.7,30.11,SSE,158,5.0,5.0,81,0.00,,,0.00,Wunderground v.1.15,2013-01-20 01:10:00,
2013-01-19 20:20:00,71.0,64.9,30.11,SSE,158,4.0,5.0,81,0.00,,,0.00,Wunderground v.1.15,2013-01-20 01:20:00,
2013-01-19 20:30:00,71.1,65.0,30.12,SSE,158,5.0,5.0,81,0.00,,,0.00,Wunderground v.1.15,2013-01-20 01:30:00,
2013-01-19 20:35:00,71.2,65.1,30.12,SSE,158,5.0,5.0,81,0.00,,,0.00,Wunderground v.1.15,2013-01-20 01:35:00,
2013-01-19 20:40:00,71.1,65.0,30.12,SSE,158,5.0,5.0,81,0.00,,,0.00,Wunderground v.1.15,2013-01-20 01:40:00,
2013-01-19 20:50:00,71.1,64.6,30.12,SSE,158,5.0,5.0,80,0.00,,,0.00,Wunderground v.1.15,2013-01-20 01:50:00,
2013-01-19 20:55:00,71.2,65.1,30.12,SSE,158,5.0,6.0,81,0.00,,,0.00,Wunderground v.1.15,2013-01-20 01:55:00,
2013-01-19 21:05:00,71.2,65.1,30.11,SSE,158,6.0,6.0,81,0.00,,,0.00,Wunderground v.1.15,2013-01-20 02:05:00,
2013-01-19 21:15:00,71.2,65.1,30.11,SSE,158,4.0,5.0,81,0.00,,,0.00,Wunderground v.1.15,2013-01-20 02:15:00,
2013-01-19 21:20:00,71.2,65.1,30.11,SSE,158,5.0,5.0,81,0.00,,,0.00,Wunderground v.1.15,2013-01-20 02:20:00,
2013-01-19 21:30:00,71.3,65.5,30.11,SSE,158,5.0,5.0,82,0.00,,,0.00,Wunderground v.1.15,2013-01-20 02:30:00,
2013-01-19 21:40:00,71.4,66.0,30.11,SSE,158,5.0,5.0,83,0.00,,,0.00,Wunderground v.1.15,2013-01-20 02:40:00,
2013-01-19 21:45:00,71.2,65.8,30.10,SSE,158,5.0,5.0,83,0.00,,,0.00,Wunderground v.1.15,2013-01-20 02:45:00,
2013-01-19 21:50:00,71.2,65.8,30.11,SSE,158,5.0,5.0,83,0.00,,,0.00,Wunderground v.1.15,2013-01-20 02:50:00,
2013-01-19 22:00:00,71.1,65.7,30.10,SSE,158,6.0,6.0,83,0.00,,,0.00,Wunderground v.1.15,2013-01-20 03:00:00,
2013-01-19 22:10:00,71.0,65.6,30.10,SSE,158,6.0,6.0,83,0.00,,,0.00,Wunderground v.1.15,2013-01-20 03:10:00,
2013-01-19 22:20:00,71.0,65.9,30.10,SSE,158,5.0,5.0,84,0.00,,,0.00,Wunderground v.1.15,2013-01-20 03:20:00,
2013-01-19 22:25:00,71.0,65.9,30.10,SSE,158,4.0,5.0,84,0.00,,,0.00,Wunderground v.1.15,2013-01-20 03:25:00,
2013-01-19 22:30:00,70.9,65.5,30.10,SSE,158,4.0,4.0,83,0.00,,,0.00,Wunderground v.1.15,2013-01-20 03:30:00,
2013-01-19 22:40:00,70.9,65.8,30.10,SSE,158,3.0,3.0,84,0.00,,,0.00,Wunderground v.1.15,2013-01-20 03:40:00,
2013-01-19 22:50:00,71.0,65.9,30.10,SSE,158,2.0,2.0,84,0.00,,,0.00,Wunderground v.1.15,2013-01-20 03:50:00,
2013-01-19 22:55:00,71.0,65.9,30.10,SSE,158,3.0,3.0,84,0.00,,,0.00,Wunderground v.1.15,2013-01-20 03:55:00,
2013-01-19 23:00:00,71.0,65.9,30.10,SSE,158,3.0,3.0,84,0.00,,,0.00,Wunderground v.1.15,2013-01-20 04:00:00,
2013-01-19 23:05:00,71.0,65.9,30.10,SSE,158,3.0,3.0,84,0.00,,,0.00,Wunderground v.1.15,2013-01-20 04:05:00,
2013-01-19 23:15:00,71.0,66.3,30.10,SSE,158,3.0,3.0,85,0.00,,,0.00,Wunderground v.1.15,2013-01-20 04:15:00,
2013-01-19 23:20:00,70.9,66.2,30.10,SSE,158,2.0,2.0,85,0.00,,,0.00,Wunderground v.1.15,2013-01-20 04:20:00,
2013-01-19 23:25:00,70.8,66.1,30.09,SSE,158,2.0,3.0,85,0.00,,,0.00,Wunderground v.1.15,2013-01-20 04:25:00,
2013-01-19 23:40:00,70.7,66.3,30.09,SSE,158,3.0,3.0,86,0.00,,,0.00,Wunderground v.1.15,2013-01-20 04:40:00,
2013-01-19 23:50:00,70.7,66.3,30.09,SSE,158,4.0,4.0,86,0.00,,,0.00,Wunderground v.1.15,2013-01-20 04:50:00,
2013-01-19 23:55:00,70.7,66.3,30.09,SSE,158,5.0,5.0,86,0.00,,,0.00,Wunderground v.1.15,2013-01-20 04:55:00,